METEOR 2-11 DEB, 40706

Orbit data source: Space-Track

METEOR 2-11 DEB, 40706 is space debris in LEO originally from a launch on Thu, 05 Jul 1984 UTC launched from the Plesetsk Missile And Space Complex (PKMTR). Debris objects in space refer to the collection of defunct objects orbiting the Earth. Examples of debris include non-operational satellites, rocket bodies, and fragments generated from explosions, collisions, or faulty payload assembly.

Loading next visibility...
Identifier
40706, 1984-072H
Orbit
LEO
Country
Flag of CISCIS
Related business
Manufacturer
Unknown
Mission
Spacecraft
Bus & Motor
Unknown
Mass
Unknown
Launch date (UTC)
1984-07-05 (41 years ago)
Launch vehicle
Unknown
Launch site
Plesetsk Missile And Space Complex (PKMTR)
Object type
Payload
Rocket body
Debris
Shape & HBR
Unknown shape, 0.1 m
Radar Cross Section
Small (<0.1 m²)

Expand to show TLE details & history
Last TLE update: 2 days ago

TLE from 2 days ago
0 METEOR 2-11 DEB
1 40706U 84072H   25309.40053945  .00001888  00000-0  13430-2 0  9995
2 40706  82.5237 190.8739 0015448 267.0550  92.8849 13.97005518557949
Epoch: 2025-11-05T09:36Z
TLE epoch observation values (Epoch: 2025-11-05T09:36:46.608Z)
Latitude
-0.00007°
Longitude
1.80594°
Altitude
907.686 km
Speed
7.398 km/s
True Right ascension
12h 43m 29s
True Declination
0° 00' 00"
Sunlit
Object was in daylight at epoch
Visualization orbit readout
Latitude
Unknown
Longitude
Unknown
Altitude
Unknown
Speed
Unknown
Apparent Right ascension
Unknown
Apparent Declination
Unknown
Sunlit
N/A
Visualization observer readout
Local Sidereal Time
15:39:05
Azimuth
Unknown
Elevation
Unknown
Doppler factor
Unknown
Orbital elements
Apogee altitude
912.563 km
Perigee altitude
890.073 km
Semi-major axis
7,279.455 km
Eccentricity
0.00154
Inclination
82.5237°
RAAN
190.8739°
Arg. of periapsis
267.055°
True anomaly
93.06168°
Mean anomaly
92.8849°
Eccentric anomaly
92.97329°
Mean motion
3.49458 °/min
Orbital period
103.02 mins
BSTAR
0.001343
Loading maneuver chart data...
Computing Atmospheric mass density...
Loading historical data...
Loading historical data...
Loading historical data...
Loading historical data...
Loading historical data...
Loading historical data...
Loading historical data...

Documentation

Showing up to 5 results
|